Regional Weather Roundup
Issued by NWS Charleston, SC

Current Version | Previous Version | Graphics & Text | Print | Product List | Glossary On
Versions: 1 2 3 4 5 6 7 8 9 10 11 12 13 14 15 16 17 18 19 20 21 22 23 24 25 26 27 28 29 30 31 32 33 34 35 36 37 38 39 40 41 42 43 44 45 46 47 48 49 50
000
ASUS42 KCHS 132325
RWRCHS

REGIONAL WEATHER ROUNDUP
NATIONAL WEATHER SERVICE CHARLESTON SC
700 PM EDT SUN JUL 13 2014

NOTE: "FAIR" INDICATES FEW OR NO CLOUDS BELOW 12,000 FEET WITH NO
SIGNIFICANT WEATHER AND/OR OBSTRUCTIONS TO VISIBILITY.

NOT ALL STATIONS ARE QUALITY CONTROLLED BY THE NATIONAL
WEATHER SERVICE. USE DATA WITH CAUTION...ESPECIALLY
DEWPOINT OBSERVATIONS.

SCZ027-030-031-034>040-042>050-140000-
...SOUTH CAROLINA...

CITY           SKY/WX    TMP DP  RH WIND       PRES   REMARKS
N CHARLESTON   PTSUNNY   82  72  71 S7        30.05F
WATERFRONT PRK   N/A     81 N/A N/A S7          N/A
FORT JOHNSON   NOT AVBL
MOUNT PLEASANT FAIR      81  73  78 S7        30.05F
JOHNS ISLAND   CLEAR     81  66  61 SW3       30.06S
PINOPOLIS        N/A     90  73  58 S5        29.98F HX  98
MONCKS CORNER    N/A     84  75  74 S6        30.05R HX  92
SUMMERVILLE    FAIR      84  73  70 SE5       30.06S HX  91
BEAUFORT MCAS  MOSUNNY   83  72  69 SW6       30.06S
BEAUFORT ARPT  FAIR      81  73  78 S6        30.06S
HILTON HEAD IS MOSUNNY   82  73  74 S5        30.08S
GEORGETOWN     NOT AVBL
WALTERBORO     PTCLDY    84  66  54 S8        30.06S
ORANGEBURG     MOSUNNY   88  70  55 S10       30.03F HX  93
BARNWELL       FAIR      88  72  58 SE10      30.03S HX  94
AIKEN          FAIR      90  68  48 W6        30.06S HX  93
MANNING        FAIR      84  48  28 SE6       30.04S
KINGSTREE      NOT AVBL
COLUMBIA       PTSUNNY   91  67  44 E8        30.01S HX  94
SUMTER         MOSUNNY   88  72  58 S7        30.02S HX  94
FLORENCE       MOSUNNY   87  71  58 S10       30.02F HX  93
MYRTLE BEACH   MOSUNNY   82  73  74 S15       30.05
N MYRTLE BEACH SUNNY     82  72  71 S13       30.05F

$$

GAZ063-065-086>088-099>101-113>116-118-119-134-136>141-150-140000-
...GEORGIA...

CITY           SKY/WX    TMP DP  RH WIND       PRES   REMARKS
SAVANNAH ARPT  LGT RAIN  79  75  87 CALM      30.07S
HUNTER AAF     PTSUNNY   80  74  82 VRB5      30.05S
FORT STEWART   CLOUDY    77  73  88 SE6       30.06R
STATESBORO     NOT AVBL
SYLVANIA       MOCLDY    83  77  82 SE6       30.05S HX  93
CLAXTON        CLOUDY    90  73  58 SE3       30.04S HX  98
THOMSON        MOSUNNY   92  71  51 CALM      30.07S HX  98
AUGUSTA-BUSH   MOSUNNY   91  66  43 SW6       30.00F HX  93
AUGUSTA-DANIEL MOSUNNY   91  66  43 S7        30.03F HX  93
SWAINSBORO     MOCLDY    90  73  58 S5        30.04R HX  98
VIDALIA          N/A     90  70  51 S6        30.04S HX  95
ALMA           SUNNY     88  71  57 SE6       30.04S HX  94
WAYCROSS       MOSUNNY   92  75  58 S6        30.05R HX 102
JESUP          NOT AVBL
BRUNSWICK      MOSUNNY   82  73  74 CALM      30.07S
SAINT SIMONS   MOSUNNY   82  74  76 SE9       30.07S

$$

SCZ027-028-034-036>038-045-046-048>050-GAZ119-141-140000-
...LAKE AND SUPPLEMENTAL COASTAL OBSERVATIONS...

STATION/POSITION TIME  TEMP    WIND        PRES    WAVE   SWELL
                       AIR SEA DIR/SP/G            HT/PER HT/PER/DIR
                 (UTC) (F)     (DEG/KT/KT) (MB)    (FT/S) (FT/S/D)
UPR LAKE MARION  NOT AVBL
WINYAH BAY       2300   82     160/  8     1017.0S
LAKE MURRAY      2300   90     230/  3/  4 1015.6S
ACE BASIN NERRS  2300   81     170/  1     1018.0S
FORT PULASKI     2300   80 78  170/  4/  7   N/A
SAPELO ISLAND    2300   81     150/  4     1019.0S

$$

ANZ835-935-AMZ111-154-330-350-352-354-374-450-454-472-140000-
...C-MAN AND BUOY OBSERVATIONS...

STATION/POSITION TIME  TEMP    WIND        PRES    WAVE   SWELL
                       AIR SEA DIR/SP/G            HT/PER HT/PER/DIR
                 (UTC) (F)     (DEG/KT/KT) (MB)    (FT/S) (FT/S/D)
FOLLY BEACH CMAN 2300   79     200/  7/  9 1018.1F
BUOY 41004       2300   80 82  220/ 10/ 10 1017.4F   2/ 7   2/ 7
BUOY 41008       2300   81 84  160/ 14/ 16 1017.9F   2/ 7   2/120/ 7
5E ST. MARYS GA  2300      83                N/A     2/ 8
FRYING PAN BUOY  NOT AVBL
BUOY 41025       2300          VRB 14/ 16  1018.1F   2/ 8   2/160/ 8
CAPE LOOKOUT NC  2300   81     180/ 11/ 12 1017.9F
BUOY 41002       2226   82 87  200/  8/ 10 1020.6F   3/ 8   2/150/ 8
BUOY 41010       2300   83 84  120/  6/  8 1019.8R   3/ 8   3/120/ 8
BUOY 41012       NOT AVBL
ST AUGUSTINE FL  2300   81     120/ 11/ 12 1019.2F
CAPERS NEARSHORE 2200   81     180/  8/ 10   N/A
FRIPP NEARSHORE  2200   81     180/ 10/ 12   N/A


$$



USA.gov is the U.S. government's official web portal to all federal, state and local government web resources and services.